Regional Weather Roundup
Issued by NWS

Home | Current Version | Previous Version | Text Only | Print | Product List | Glossary On
Versions: 1 2 3 4 5 6 7 8 9 10 11 12 13 14 15 16 17 18 19 20 21 22 23 24 25 26 27 28 29 30 31 32 33 34 35 36 37 38 39 40 41 42 43 44 45 46 47 48 49 50
000
ASUS44 KFWD 080215
RWRTX
NORTH TEXAS HOURLY WEATHER ROUNDUP
NATIONAL WEATHER SERVICE FORT WORTH TX
800 PM CST WED DEC 07 2016

NOTE: "FAIR" INDICATES FEW OR NO CLOUDS BELOW 12,000 FEET WITH NO
SIGNIFICANT WEATHER AND/OR OBSTRUCTIONS TO VISIBILITY.

TXZ118-119-080300-
DALLAS/FORT WORTH METROPLEX

CITY           SKY/WX    TMP DP  RH WIND       PRES   REMARKS
DFW AIRPORT    CLOUDY    49  37  63 N15       30.23R
DALLAS LOVE    CLOUDY    50  42  74 NE12      30.24R
FTW MEACHAM    CLOUDY    50  36  58 N10       30.24R
DAL-EXECUTIVE  CLOUDY    50  42  74 NE9       30.23R
FTW-ALLIANCE   CLOUDY    49  36  61 N14       30.24R
FTW-NAS-JRB    CLOUDY    50  37  61 N12       30.24R
FTW-SPINKS     CLOUDY    49  38  66 N10       30.24R
ARLINGTON      CLOUDY    50  39  66 N9        30.23R
GRAND PRAIRIE  CLOUDY    50  37  60 N10       30.23R
ADDISON        CLOUDY    48  43  81 NE9G18    30.23R
LANCASTER      CLOUDY    61  55  78 N10       30.23R
$$

TXZ091>094-102>105-117-120-121-131>134-080300-
NORTH CENTRAL TEXAS

CITY           SKY/WX    TMP DP  RH WIND       PRES   REMARKS
SHRMAN/DENISON CLOUDY    41  38  89 N15G23    30.30R WCI  34
GAINESVILLE    CLOUDY    40  34  78 N20       30.29R WCI  30
BOWIE          CLOUDY    41  34  76 N15G21    30.29R WCI  33
BRIDGEPORT     CLOUDY    46  35  65 N15G22    30.28R
DECATUR        CLOUDY    44  33  65 N13G20    30.26R WCI  38
DENTON         CLOUDY    46  39  76 N16       30.26R WCI  39
MCKINNEY       CLOUDY    45  42  89 N16       30.24R WCI  38
BONHAM         CLOUDY    41  37  87 N15       30.27R WCI  33
GREENVILLE     CLOUDY    45  43  93 N8        30.24R
ROCKWALL       CLOUDY    47  44  88 NE12G20   30.23R
TERRELL        CLOUDY    49  43  80 NE12      30.22R
WAXAHACHIE     CLOUDY    49  41  73 N7        30.23R
CLEBURNE       CLOUDY    48  43  81 N9        30.23R
GRANBURY       CLOUDY    50  42  72 N7        30.25R
$$

TXZ083>090-098>101-113>116-127>130-139>142-154-155-080300-
WESTERN NORTH TEXAS

CITY           SKY/WX    TMP DP  RH WIND       PRES   REMARKS
WICHITA FALLS  CLOUDY    38  28  67 N23G30    30.32R WCI  27
WF-KICKAPOO    CLOUDY    39  28  63 N18G25    30.34R WCI  30
VERNON         CLOUDY    39  23  52 NE12      30.35R WCI  32
ABILENE        CLOUDY    41  39  93 N13       30.24R WCI  34
ABILENE-DYESS  CLOUDY    42  35  78 N14       30.23R WCI  35
CISCO          CLOUDY    43  41  93 N12       30.22R FOG     WCI  37
BRECKENRIDGE   CLOUDY    46  39  77 N9        30.25R
GRAHAM         CLOUDY    44  33  65 N10       30.25R WCI  39
MINERAL WELLS  CLOUDY    48  36  63 N10       30.23R
STEPHENVILLE   CLOUDY    45  43  91 N7        30.24R
COMANCHE       CLOUDY    45  45 100 N10       30.21R FOG
BROWNWOOD      CLOUDY    46  41  81 N8        30.22R
COLEMAN        CLOUDY    44  42  92 N10       30.21R WCI  39
$$

TXZ143>147-156>162-174-175-080300-
CENTRAL TEXAS

CITY           SKY/WX    TMP DP  RH WIND       PRES   REMARKS
WACO           CLOUDY    51  46  83 N12       30.20R
WACO-MCGREGOR  CLOUDY    51  46  83 N9        30.20R
HILLSBORO      CLOUDY    50  43  75 N9        30.20S
CORSICANA      CLOUDY    52  45  77 N12       30.21R
MEXIA          CLOUDY    50  46  86 NW7       30.19R
HEARNE         CLOUDY    54  49  85 NW6       30.18R
CAMERON        CLOUDY    54  49  84 N3        30.17R
TEMPLE         CLOUDY    50  47  89 N8        30.19R
KILLEEN        CLOUDY    49  47  93 NE9       30.17R
KILLEEN-SKYLRK CLOUDY    50  47  89 N9        30.18R
FORT HOOD      CLOUDY    48  48 100 NE8       30.16R
GATESVILLE       N/A     48  46  93 N3        30.21R
HAMILTON       CLOUDY    47  47 100 NE9       30.20R FOG
LAMPASAS       CLOUDY    50  49  93 N5        30.18R
$$

TXZ095>097-106>112-122>126-135>138-148>153-164>167-080300-
EAST TEXAS

CITY           SKY/WX    TMP DP  RH WIND       PRES   REMARKS
PARIS          CLOUDY    45  41  87 N7        30.25R
SULPHUR SPRNGS CLOUDY    46  46 100 N9        30.26R FOG
MOUNT PLEASANT CLOUDY    45  45 100 N8        30.24R
GILMER         DRIZZLE   47  47  98 N9        30.20R
MINEOLA        DRIZZLE   46  46 100 N8        30.22R FOG
TYLER          CLOUDY    50  49  96 N7        30.19R FOG
LONGVIEW       CLOUDY    51  49  92 NE6       30.17R
MARSHALL         N/A     47  46  93 CALM      30.20R
ATHENS         CLOUDY    48  48 100 N10G18    30.18R
PALESTINE      CLOUDY    53  49  88 CALM      30.19R
JACKSONVILLE   CLOUDY    52  50  93 CALM      30.18R
HENDERSON      CLOUDY    51  49  94 N5        30.19R
CENTER         CLOUDY    54  53  95 CALM      30.17R
NACOGDOCHES    CLOUDY    54  50  87 N3        30.14R
LUFKIN         CLOUDY    55  51  86 NW3       30.14R
$$

SUPPLEMENTAL OBSERVATIONS (CENTRAL)

CITY           SKY/WX    TMP DP  RH WIND       PRES   REMARKS
DENISON DAM      N/A     39  34  81 N12         N/A  WCI  32
CADDO GRASSLND   N/A     41  36  81 N6          N/A  WCI  37
PAT MAYSE LAKE   N/A     41  39  93 NW12        N/A  WCI  34
GREENVILLE       N/A     45  41  87 N12         N/A  WCI  39
LAKE LIMESTONE   N/A     54  48  82 N6          N/A
MCGREGOR         N/A     52  46  82 N5          N/A
TEMPLE           N/A     52  48  87 VRB1        N/A
$$

SUPPLEMENTAL OBSERVATIONS (WEST)

CITY           SKY/WX    TMP DP  RH WIND       PRES   REMARKS
MILLERS CREEK    N/A     41  30  65 N14         N/A  WCI  33
POSSUM KINGDOM   N/A     45  34  65 N10         N/A  WCI  39
LBJ GRASSLAND    N/A     45  34  65 N10G22      N/A  WCI  39
GRANBURY         N/A     48  39  71 N8          N/A
COMANCHE         N/A     45  43  93 N12         N/A  WCI  39
HAMBY            N/A     43  39  87 NE9G17      N/A  WCI  37
IVIE RESERVOIR   N/A     45  41  87 NE15        N/A  WCI  38
COLORADO BEND    N/A     48  45  87 E7          N/A
$$

SUPPLEMENTAL OBSERVATIONS (EAST)

CITY           SKY/WX    TMP DP  RH WIND       PRES   REMARKS
CLARKSVILLE      N/A     43  39  87 NE6         N/A  WCI  39
TEXARKANA        N/A     43  41  93 N6          N/A  WCI  39
LINDEN           N/A     45  43  93 NE1         N/A
CADDO LAKE       N/A     46  45  93 N3          N/A
GILMER           N/A     48  46  93 N9          N/A
HENDERSON        N/A     52  48  87 N6          N/A
LUFKIN           N/A     55  52  88 MISG        N/A
N SABINE NF      N/A     52  50  93 MISG        N/A
S SABINE NF      N/A     52  50  93 N3          N/A
$$

SUPPLEMENTAL OBSERVATIONS ARE A COLLECTION OF AUTOMATED INSTRUMENTS
THAT ARE MAINTAINED BY A VARIETY OF FEDERAL AND STATE AGENCIES.
CERTAIN ELEMENTS...SUCH AS HUMIDITY VALUES AND SUSTAINED WIND
SPEEDS...MAY BE APPROXIMATED.




USA.gov is the U.S. government's official web portal to all federal, state and local government web resources and services.